GW4285 Weather Reports


Display with metric or nautical units.
time (UTC)temp
F
wind
direction
speed
MPH
gust
MPH
rain 1hr
in
rain 24hr
in
rain mn
in
humidity
%
barometer
mb
20260905064055 55 303 0.0 0.0 0.00 0.00 0.00 98 1014.5
20260905063553 55 303 0.0 0.0 0.00 0.00 0.00 98 1014.6
20260905063049 55 303 0.0 0.0 0.00 0.00 0.00 98 1014.6
20260905062544 55 303 0.0 0.0 0.00 0.00 0.00 98 1014.5
20260905062039 55 303 0.0 0.0 0.00 0.00 0.00 97 1014.5
20260905061534 55 303 0.0 0.0 0.00 0.00 0.00 97 1014.7
20260905061033 55 303 0.0 0.0 0.00 0.00 0.00 97 1014.6
20260905060529 56 303 0.0 0.0 0.00 0.00 0.00 97 1014.7
20260905060024 56 303 0.0 0.0 0.00 0.00 0.00 97 1014.7
20260905055523 56 303 0.0 0.0 0.00 0.00 0.00 97 1014.7
20260905055018 56 303 0.0 0.0 0.00 0.00 0.00 96 1014.7
20260905054514 56 303 0.0 0.0 0.00 0.00 0.00 96 1014.6
20260905054009 56 303 0.0 0.0 0.00 0.00 0.00 96 1014.7
20260905053503 56 303 0.0 0.0 0.00 0.00 0.00 96 1014.8
20260905052959 56 303 0.0 0.0 0.00 0.00 0.00 96 1014.9
20260905052458 56 303 0.0 0.0 0.00 0.00 0.00 96 1014.9
20260905051958 57 303 0.0 0.0 0.00 0.00 0.00 96 1014.9
20260905051453 57 303 0.0 0.0 0.00 0.00 0.00 95 1014.9
20260905050951 57 303 0.0 0.0 0.00 0.00 0.00 95 1015.0
20260905050446 57 303 0.0 0.0 0.00 0.00 0.00 95 1015.1
20260905045943 57 303 0.0 0.0 0.00 0.00 0.00 95 1015.1
20260905045437 57 303 0.0 0.0 0.00 0.00 0.00 94 1015.1
20260905044932 57 303 0.0 1.0 0.00 0.00 0.00 94 1014.9
20260905044427 57 303 0.0 1.0 0.00 0.00 0.00 94 1014.9
20260905043926 57 243 0.0 0.0 0.00 0.00 0.00 93 1014.9
20260905043420 57 243 0.0 0.0 0.00 0.00 0.00 93 1015.0
20260905042921 57 244 0.0 0.0 0.00 0.00 0.00 93 1014.9
20260905042415 57 281 0.0 0.0 0.00 0.00 0.00 92 1014.9
20260905041910 57 253 0.0 0.0 0.00 0.00 0.00 92 1014.8
20260905041407 57 246 0.0 0.0 0.00 0.00 0.00 92 1014.8
20260905040901 57 246 0.0 0.0 0.00 0.00 0.00 91 1014.9
20260905040401 57 233 0.0 0.0 0.00 0.00 0.00 91 1014.9
20260905035900 57 257 0.0 0.0 0.00 0.00 0.00 90 1014.8
20260905035355 58 246 0.0 0.0 0.00 0.00 0.00 90 1014.7
20260905034852 58 246 0.0 0.0 0.00 0.00 0.00 90 1014.7
20260905034347 58 258 0.0 0.0 0.00 0.00 0.00 89 1014.7
20260905033845 58 247 0.0 1.0 0.00 0.00 0.00 89 1014.7
20260905033341 58 247 0.0 1.0 0.00 0.00 0.00 89 1014.6
20260905032840 59 226 2.0 3.0 0.00 0.00 0.00 88 1014.5
20260905032336 59 242 1.0 3.0 0.00 0.00 0.00 88 1014.7
20260905031831 59 253 0.0 1.0 0.00 0.00 0.00 87 1014.6
20260905031327 59 265 0.0 0.0 0.00 0.00 0.00 86 1014.6
20260905030822 59 257 0.0 0.0 0.00 0.00 0.00 85 1014.6
20260905030318 60 249 0.0 0.0 0.00 0.00 0.00 85 1014.5
20260905025816 60 251 0.0 1.0 0.00 0.00 0.00 84 1014.6
20260905025312 60 261 0.0 3.0 0.00 0.00 0.00 82 1014.5
20260905024808 61 247 1.0 3.0 0.00 0.00 0.00 82 1014.5
20260905024303 61 247 0.0 0.0 0.00 0.00 0.00 81 1014.4
20260905023758 62 258 0.0 0.0 0.00 0.00 0.00 80 1014.4
20260905023254 62 255 0.0 4.0 0.00 0.00 0.00 78 1014.5
20260905022753 63 244 0.0 0.0 0.00 0.00 0.00 76 1014.6
20260905022248 64 260 0.0 0.0 0.00 0.00 0.00 74 1014.5
20260905021748 64 265 0.0 1.0 0.00 0.00 0.00 72 1014.4
20260905021243 65 252 1.0 1.0 0.00 0.00 0.00 73 1014.4
20260905020744 66 274 1.0 3.0 0.00 0.00 0.00 70 1014.4
20260905020239 66 253 0.0 4.0 0.00 0.00 0.00 69 1014.3
20260905015737 66 256 3.0 8.0 0.00 0.00 0.00 68 1014.4
20260905015232 66 250 0.0 5.0 0.00 0.00 0.00 69 1014.4
20260905014731 66 244 1.0 4.0 0.00 0.00 0.00 70 1014.3
20260905014227 66 254 4.0 8.0 0.00 0.00 0.00 70 1014.5
20260905013722 65 262 3.0 7.0 0.00 0.00 0.00 67 1014.4
20260905013218 66 238 2.0 7.0 0.00 0.00 0.00 68 1014.5
20260905012713 67 277 4.0 5.0 0.00 0.00 0.00 66 1014.5
20260905012209 67 239 3.0 8.0 0.00 0.00 0.00 66 1014.4
20260905011700 67 278 8.0 10.0 0.00 0.00 0.00 65 1014.4
20260905011155 67 260 4.0 10.0 0.00 0.00 0.00 64 1014.3
20260905010655 68 262 4.0 11.0 0.00 0.00 0.00 61 1014.3
20260905010151 68 204 3.0 8.0 0.00 0.00 0.00 60 1014.3
20260905005648 70 258 10.0 14.0 0.00 0.00 0.00 58 1014.2
20260905005143 69 239 3.0 4.0 0.00 0.00 0.00 60 1014.2
20260905004642 68 262 3.0 7.0 0.00 0.00 0.00 60 1014.2
20260905004138 68 277 5.0 8.0 0.00 0.00 0.00 60 1014.3
20260905003633 68 263 11.0 16.0 0.00 0.00 0.00 59 1014.3
20260905003129 68 238 5.0 10.0 0.00 0.00 0.00 63 1014.2
20260905002625 70 289 8.0 14.0 0.00 0.00 0.00 60 1014.1
20260905002119 68 281 6.0 11.0 0.00 0.00 0.00 64 1014.0
20260905001615 69 259 12.0 15.0 0.00 0.00 0.00 63 1014.1
20260905001114 71 255 4.0 11.0 0.00 0.00 0.00 61 1014.2
20260905000610 69 267 7.0 12.0 0.00 0.00 0.00 62 1014.1
20260905000106 69 242 4.0 14.0 0.00 0.00 0.00 62 1014.2
20260904235605 71 247 11.0 14.0 0.00 0.00 0.00 60 1014.3
20260904235105 72 293 3.0 7.0 0.00 0.00 0.00 61 1014.1
20260904234600 72 256 3.0 15.0 0.00 0.00 0.00 62 1014.2
20260904234056 73 275 7.0 11.0 0.00 0.00 0.00 56 1014.1
20260904233555 70 294 2.0 7.0 0.00 0.00 0.00 60 1014.1
20260904233052 70 236 5.0 12.0 0.00 0.00 0.00 59 1014.1
20260904232548 71 265 4.0 11.0 0.00 0.00 0.00 59 1014.0
20260904232045 71 253 4.0 8.0 0.00 0.00 0.00 58 1014.0
20260904231540 71 227 3.0 8.0 0.00 0.00 0.00 56 1014.1
20260904231035 70 277 7.0 12.0 0.00 0.00 0.00 60 1014.0
20260904230534 72 272 4.0 8.0 0.00 0.00 0.00 56 1014.0
20260904230030 73 293 5.0 8.0 0.00 0.00 0.00 54 1014.1
20260904225527 70 273 7.0 10.0 0.00 0.00 0.00 58 1014.1
20260904225026 71 245 8.0 11.0 0.00 0.00 0.00 56 1014.1
20260904224522 72 260 8.0 10.0 0.00 0.00 0.00 54 1014.1
20260904224022 72 262 9.0 15.0 0.00 0.00 0.00 56 1014.2
20260904223521 72 265 8.0 14.0 0.00 0.00 0.00 56 1014.1
20260904223018 72 256 9.0 12.0 0.00 0.00 0.00 56 1014.2
20260904222513 72 267 5.0 8.0 0.00 0.00 0.00 55 1014.1
20260904222008 71 224 2.0 14.0 0.00 0.00 0.00 58 1014.1
20260904221503 72 234 7.0 18.0 0.00 0.00 0.00 56 1014.3
20260904221003 73 282 4.0 14.0 0.00 0.00 0.00 54 1014.3
20260904220502 71 263 6.0 12.0 0.00 0.00 0.00 56 1014.2
20260904215958 72 245 3.0 12.0 0.00 0.00 0.00 56 1014.3
20260904215453 73 254 5.0 12.0 0.00 0.00 0.00 54 1014.1
20260904214949 73 241 4.0 5.0 0.00 0.00 0.00 54 1014.2
20260904214444 72 262 5.0 14.0 0.00 0.00 0.00 55 1014.3
20260904213939 73 228 3.0 10.0 0.00 0.00 0.00 55 1014.2
20260904213438 72 264 9.0 10.0 0.00 0.00 0.00 53 1014.2
20260904212934 72 237 10.0 14.0 0.00 0.00 0.00 53 1014.2
20260904212433 72 279 13.0 18.0 0.00 0.00 0.00 54 1014.1
20260904211930 71 239 2.0 11.0 0.00 0.00 0.00 55 1014.2
20260904211429 72 265 5.0 11.0 0.00 0.00 0.00 55 1014.2
20260904210925 73 245 7.0 12.0 0.00 0.00 0.00 53 1014.2
20260904210424 75 273 5.0 7.0 0.00 0.00 0.00 51 1014.2
20260904205920 73 252 3.0 5.0 0.00 0.00 0.00 50 1014.2
20260904205415 73 262 6.0 10.0 0.00 0.00 0.00 49 1014.2
20260904204912 73 256 1.0 8.0 0.00 0.00 0.00 45 1014.3
20260904204408 73 264 4.0 8.0 0.00 0.00 0.00 46 1014.3
20260904203904 73 249 4.0 8.0 0.00 0.00 0.00 45 1014.1
20260904203400 74 241 5.0 8.0 0.00 0.00 0.00 46 1014.2
20260904202856 73 245 0.0 3.0 0.00 0.00 0.00 50 1014.3
20260904202352 72 255 0.0 4.0 0.00 0.00 0.00 51 1014.2
20260904201847 71 251 5.0 5.0 0.00 0.00 0.00 52 1014.2
20260904201342 71 252 3.0 5.0 0.00 0.00 0.00 54 1014.2
20260904200837 71 260 1.0 3.0 0.00 0.00 0.00 52 1014.2
20260904200336 71 259 4.0 5.0 0.00 0.00 0.00 57 1014.3
20260904195836 70 251 2.0 8.0 0.00 0.00 0.00 55 1014.4
20260904195334 70 265 4.0 8.0 0.00 0.00 0.00 56 1014.4
20260904194829 70 249 0.0 4.0 0.00 0.00 0.00 62 1014.5
20260904194328 70 258 1.0 1.0 0.00 0.00 0.00 61 1014.4
20260904193823 70 262 4.0 4.0 0.00 0.00 0.00 58 1014.6
20260904193319 68 260 0.0 4.0 0.00 0.00 0.00 63 1014.6
20260904192814 69 255 3.0 8.0 0.00 0.00 0.00 62 1014.7
20260904192309 69 248 2.0 4.0 0.00 0.00 0.00 66 1014.6
20260904191806 70 252 3.0 4.0 0.00 0.00 0.00 63 1014.6
20260904191302 69 246 0.0 1.0 0.00 0.00 0.00 60 1014.7
20260904190758 67 251 3.0 4.0 0.00 0.00 0.00 65 1014.7
20260904190254 66 258 5.0 5.0 0.00 0.00 0.00 67 1014.6
20260904185750 66 250 3.0 5.0 0.00 0.00 0.00 68 1014.7
20260904185245 66 247 4.0 7.0 0.00 0.00 0.00 70 1014.7
20260904184743 66 251 0.0 3.0 0.00 0.00 0.00 71 1014.8
20260904184240 65 250 3.0 4.0 0.00 0.00 0.00 72 1014.6
20260904183735 64 248 5.0 8.0 0.00 0.00 0.00 72 1014.9
20260904183230 64 248 5.0 10.0 0.00 0.00 0.00 74 1014.8
20260904182725 65 268 2.0 4.0 0.00 0.00 0.00 78 1014.8
20260904182220 64 254 1.0 4.0 0.00 0.00 0.00 76 1014.7
20260904181716 64 252 2.0 11.0 0.00 0.00 0.00 75 1014.6
20260904181216 64 267 3.0 7.0 0.00 0.00 0.00 77 1014.8
20260904180712 64 258 0.0 7.0 0.00 0.00 0.00 80 1014.7
20260904180207 63 255 2.0 3.0 0.00 0.00 0.00 81 1014.8
20260904175706 63 264 3.0 7.0 0.00 0.00 0.00 83 1014.8
20260904175205 63 249 5.0 7.0 0.00 0.00 0.00 81 1014.7
20260904174705 64 265 3.0 5.0 0.00 0.00 0.00 82 1014.6
20260904174201 63 257 0.0 1.0 0.00 0.00 0.00 86 1014.6
20260904173656 63 257 0.0 3.0 0.00 0.00 0.00 86 1014.7
20260904173151 61 250 0.0 1.0 0.00 0.00 0.00 91 1014.6
20260904172648 60 254 3.0 4.0 0.00 0.00 0.00 91 1014.7
20260904172147 60 260 2.0 3.0 0.00 0.00 0.00 92 1014.5
20260904171642 59 254 3.0 3.0 0.00 0.00 0.00 94 1014.5
20260904171137 59 259 0.0 1.0 0.00 0.00 0.00 98 1014.5
20260904170633 57 261 3.0 4.0 0.00 0.00 0.00 99 1014.4
20260904170129 57 262 2.0 3.0 0.00 0.00 0.00 99 1014.5
20260904165628 57 257 2.0 4.0 0.00 0.00 0.00 99 1014.4
20260904165127 57 260 2.0 3.0 0.00 0.00 0.00 99 1014.5
20260904164627 56 259 0.0 4.0 0.00 0.00 0.00 99 1014.4
20260904164123 57 262 1.0 3.0 0.00 0.00 0.00 99 1014.4
20260904163618 57 261 1.0 1.0 0.00 0.00 0.00 99 1014.4
20260904163114 57 260 2.0 3.0 0.00 0.00 0.00 99 1014.4
20260904162614 57 269 0.0 0.0 0.00 0.00 0.00 99 1014.3
20260904162109 56 269 0.0 0.0 0.00 0.00 0.00 99 1014.3
20260904161604 55 269 0.0 0.0 0.00 0.00 0.00 99 1014.4
20260904161059 55 269 0.0 0.0 0.00 0.00 0.00 99 1014.4
20260904160554 54 269 0.0 0.0 0.00 0.00 0.00 99 1014.4
20260904160050 54 269 0.0 0.0 0.00 0.00 0.00 99 1014.3
20260904155549 54 269 0.0 0.0 0.00 0.00 0.00 99 1014.2
20260904155044 55 269 0.0 0.0 0.00 0.00 0.00 99 1014.4
20260904154537 54 269 0.0 0.0 0.00 0.00 0.00 99 1014.2
20260904154033 54 269 0.0 0.0 0.00 0.00 0.00 99 1014.3
20260904153532 55 269 0.0 0.0 0.00 0.00 0.00 99 1014.1
20260904153029 55 269 0.0 0.0 0.00 0.00 0.00 99 1014.1
20260904152524 54 269 0.0 0.0 0.00 0.00 0.00 99 1014.1
20260904152019 55 269 0.0 0.0 0.00 0.00 0.00 99 1014.1
20260904151515 54 269 0.0 0.0 0.00 0.00 0.00 99 1014.1
20260904151014 54 269 0.0 0.0 0.00 0.00 0.00 99 1014.0
20260904150514 54 269 0.0 0.0 0.00 0.00 0.00 99 1014.2
20260904150009 53 269 0.0 0.0 0.00 0.00 0.00 99 1014.1
20260904145503 53 269 0.0 0.0 0.00 0.00 0.00 99 1014.1
20260904144959 52 269 0.0 0.0 0.00 0.00 0.00 99 1014.0
20260904144454 52 269 0.0 0.0 0.00 0.00 0.00 99 1013.9
20260904143950 52 269 0.0 0.0 0.00 0.00 0.00 99 1013.7
20260904143446 52 269 0.0 0.0 0.00 0.00 0.00 99 1013.7
20260904142943 52 269 0.0 0.0 0.00 0.00 0.00 99 1013.6
20260904142438 52 269 0.0 0.0 0.00 0.00 0.00 99 1013.7
20260904141932 52 268 0.0 0.0 0.00 0.00 0.00 99 1013.6
20260904141427 52 268 0.0 0.0 0.00 0.00 0.00 99 1013.6
20260904140924 52 264 0.0 0.0 0.00 0.00 0.00 99 1013.6
20260904140424 52 263 0.0 0.0 0.00 0.00 0.00 99 1013.4
20260904135918 52 263 0.0 0.0 0.00 0.00 0.00 99 1013.3
20260904135418 52 262 0.0 0.0 0.00 0.00 0.00 99 1013.2
20260904134914 52 261 0.0 0.0 0.00 0.00 0.00 99 1013.2
20260904134413 52 260 0.0 0.0 0.00 0.00 0.00 99 1013.3
20260904133908 52 259 0.0 0.0 0.00 0.00 0.00 99 1013.2
20260904133403 52 257 0.0 0.0 0.00 0.00 0.00 99 1013.2
20260904132858 52 257 0.0 0.0 0.00 0.00 0.00 99 1013.1
20260904132354 53 257 0.0 0.0 0.00 0.00 0.00 99 1013.0
20260904131853 53 273 0.0 0.0 0.00 0.00 0.00 99 1013.1
20260904131349 53 274 0.0 0.0 0.00 0.00 0.00 99 1013.1
20260904130849 53 271 0.0 0.0 0.00 0.00 0.00 99 1012.9
20260904130348 54 268 0.0 0.0 0.00 0.00 0.00 99 1013.0
20260904125843 54 265 0.0 0.0 0.00 0.00 0.00 99 1012.9
20260904125339 54 261 0.0 0.0 0.00 0.00 0.00 99 1012.9
20260904124838 55 256 0.0 0.0 0.00 0.00 0.00 99 1012.6
20260904124335 55 256 0.0 0.0 0.00 0.00 0.00 99 1012.8
20260904123830 55 256 0.0 0.0 0.00 0.00 0.00 99 1012.6
20260904123325 55 256 0.0 0.0 0.00 0.00 0.00 99 1012.8
20260904122820 55 256 0.0 0.0 0.00 0.00 0.00 99 1012.6
20260904122315 55 256 0.0 0.0 0.00 0.00 0.00 99 1012.5
20260904121810 55 256 0.0 0.0 0.00 0.00 0.00 99 1012.7
20260904121306 55 256 0.0 0.0 0.00 0.00 0.00 99 1012.7
20260904120802 55 256 0.0 0.0 0.00 0.00 0.00 99 1012.6
20260904120257 55 256 0.0 0.0 0.00 0.00 0.00 99 1012.6
20260904115752 55 256 0.0 0.0 0.00 0.00 0.00 99 1012.7
20260904115247 55 256 0.0 0.0 0.00 0.00 0.00 99 1012.7
20260904114737 55 256 0.0 0.0 0.00 0.00 0.00 99 1012.5
20260904114236 55 257 0.0 0.0 0.00 0.00 0.00 99 1012.6
20260904113731 55 256 0.0 0.0 0.00 0.00 0.00 99 1012.7
20260904113230 56 256 0.0 0.0 0.00 0.00 0.00 99 1012.7
20260904112726 55 256 0.0 0.0 0.00 0.00 0.00 99 1012.7
20260904112221 55 256 0.0 0.0 0.00 0.00 0.00 99 1012.6
20260904111717 55 256 0.0 0.0 0.00 0.00 0.00 99 1012.6
20260904111213 55 256 0.0 0.0 0.00 0.00 0.00 99 1012.6
20260904110708 55 257 0.0 0.0 0.00 0.00 0.00 99 1012.6
20260904110207 55 257 0.0 0.0 0.00 0.00 0.00 99 1012.5
20260904105703 55 257 0.0 0.0 0.00 0.00 0.00 99 1012.4
20260904105157 55 257 0.0 0.0 0.00 0.00 0.00 99 1012.5
20260904104653 55 257 0.0 0.0 0.00 0.00 0.00 99 1012.5
20260904104148 55 257 0.0 0.0 0.00 0.00 0.00 99 1012.4
20260904103644 55 257 0.0 0.0 0.00 0.00 0.00 99 1012.5
20260904103139 55 257 0.0 0.0 0.00 0.00 0.00 99 1012.4
20260904102635 56 257 0.0 0.0 0.00 0.00 0.00 99 1012.5
20260904102129 56 257 0.0 0.0 0.00 0.00 0.00 99 1012.4
20260904101626 56 257 0.0 0.0 0.00 0.00 0.00 99 1012.5
20260904101122 56 257 0.0 0.0 0.00 0.00 0.00 99 1012.6
20260904100618 56 257 0.0 0.0 0.00 0.00 0.00 99 1012.4
20260904100112 56 257 0.0 0.0 0.00 0.00 0.00 99 1012.5
20260904095607 56 257 0.0 0.0 0.00 0.00 0.00 99 1012.4
20260904095102 56 257 0.0 0.0 0.00 0.00 0.00 99 1012.4
20260904094602 56 257 0.0 0.0 0.00 0.00 0.00 99 1012.4
20260904094057 56 257 0.0 0.0 0.00 0.00 0.00 99 1012.3
20260904093554 56 262 0.0 0.0 0.00 0.00 0.00 99 1012.3
20260904093049 57 261 0.0 0.0 0.00 0.00 0.00 99 1012.3
20260904092544 57 261 0.0 0.0 0.00 0.00 0.00 99 1012.3
20260904092041 57 262 0.0 0.0 0.00 0.00 0.00 99 1012.3
20260904091536 57 261 0.0 0.0 0.00 0.00 0.00 99 1012.5
20260904091036 57 261 0.0 0.0 0.00 0.00 0.00 99 1012.4
20260904090531 57 265 0.0 0.0 0.00 0.00 0.00 99 1012.4
20260904090027 57 266 0.0 0.0 0.00 0.00 0.00 99 1012.5
20260904085523 57 266 0.0 0.0 0.00 0.00 0.00 99 1012.4
20260904085022 57 266 0.0 0.0 0.00 0.00 0.00 99 1012.5
20260904084518 57 266 0.0 0.0 0.00 0.00 0.00 99 1012.4
20260904084014 57 266 0.0 0.0 0.00 0.00 0.00 99 1012.5
20260904083510 57 265 0.0 0.0 0.00 0.00 0.00 99 1012.4
20260904083006 57 256 0.0 0.0 0.00 0.00 0.00 99 1012.5
20260904082501 57 256 0.0 0.0 0.00 0.00 0.00 99 1012.5
20260904082000 57 274 0.0 0.0 0.00 0.00 0.00 99 1012.6
20260904081456 57 253 0.0 0.0 0.00 0.00 0.00 99 1012.4
20260904080952 57 271 0.0 0.0 0.00 0.00 0.00 99 1012.5
20260904080447 57 271 0.0 0.0 0.00 0.00 0.00 99 1012.5
20260904075943 57 271 0.0 0.0 0.00 0.00 0.00 99 1012.5
20260904075439 57 271 0.0 0.0 0.00 0.00 0.00 99 1012.5
20260904074938 57 271 0.0 0.0 0.00 0.00 0.00 99 1012.3
20260904074433 57 271 0.0 0.0 0.00 0.00 0.00 99 1012.3
20260904073928 57 271 0.0 0.0 0.00 0.00 0.00 99 1012.2
20260904073424 57 271 0.0 0.0 0.00 0.00 0.00 99 1012.3
20260904072919 57 271 0.0 0.0 0.00 0.00 0.00 99 1012.2
20260904072415 57 271 0.0 0.0 0.00 0.00 0.00 99 1012.3
20260904071910 57 271 0.0 0.0 0.00 0.00 0.00 99 1012.2
20260904071405 57 271 0.0 0.0 0.00 0.00 0.00 99 1012.3
20260904070859 58 270 0.0 0.0 0.00 0.00 0.00 99 1012.3
20260904070358 58 261 0.0 0.0 0.00 0.00 0.00 99 1012.3
20260904065853 58 261 0.0 0.0 0.00 0.01 0.01 99 1012.3
20260904065349 58 261 0.0 0.0 0.00 0.01 0.01 99 1012.3
20260904064844 58 261 0.0 0.0 0.00 0.01 0.01 99 1012.4
20260904064340 58 261 1.0 3.0 0.00 0.01 0.01 99 1012.3